Rijeka, Croatia

8:42 PM CEST on October 23, 2017 (GMT +0200)
Rijeka

Weather History for LDRI - October, 2017

Change the Weather History Date:

Thursday, October 12, 2017

  Actual Average Record
Temperature  
Mean Temperature 60 °F -  
Max Temperature 68 °F - - ()
Min Temperature 51 °F - - ()
Degree Days  
Heating Degree Days 6    
Growing Degree Days 10 (Base 50)    
Moisture  
Dew Point 54 °F    
Average Humidity 85    
Maximum Humidity 100    
Minimum Humidity 68    
Precipitation  
Precipitation 0.00 in - - ()
Sea Level Pressure  
Sea Level Pressure 30.25 in    
Wind  
Wind Speed 3 mph ()    
Max Wind Speed 6 mph    
Max Gust Speed -    
Visibility 6.2 miles    
Events      
T = Trace of Precipitation, MM = Missing Value Source: Averaged Metar Reports

Daily Weather History Graph

Daily Weather History Graph

Search for Another Location

Airport or City:

Trip Planner

Search our weather history database for the weather conditions in past years. The results will help you decide how hot, cold, wet, or windy it might be!

Date:

Astronomy

Oct. 12, 2017 Rise Set
Actual Time 7:13 AM CEST 6:21 PM CEST
Civil Twilight 6:44 AM CEST 6:51 PM CEST
Nautical Twilight 6:09 AM CEST 7:25 PM CEST
Astronomical Twilight 5:35 AM CEST 7:59 PM CEST
Moon No Moon Rise 2:19 PM CEST (10/12)
Length of Visible Light 12h 07m
Length of Day
11h 08m
Waning Gibbous, 51% of the Moon is Illuminated
Oct 12
Waning Gibbous
Oct 12
Last Quarter
Oct 19
New
Oct 28
First Quarter
Nov 4
Full

Hourly Weather History & Observations

Time (CEST) Temp. Dew Point Humidity Pressure Visibility Wind Dir Wind Speed Gust Speed Precip Events Conditions
12:00 AM 53.6 °F 51.8 °F 94% 30.24 in - Calm Calm - N/A   Clear
1:00 AM 55.4 °F 50.0 °F 82% 30.24 in - Variable 2.3 mph - N/A   Clear
1:30 AM 51.8 °F 50.0 °F 94% 30.24 in - Variable 2.3 mph - N/A   Clear
2:00 AM 53.6 °F 51.8 °F 94% 30.24 in - ESE 5.8 mph - N/A   Clear
2:30 AM 55.4 °F 51.8 °F 88% 30.21 in - ESE 4.6 mph - N/A   Clear
3:00 AM 53.6 °F 51.8 °F 94% 30.21 in - ESE 4.6 mph - N/A   Clear
3:30 AM 53.6 °F 51.8 °F 94% 30.21 in - ESE 4.6 mph - N/A   Clear
4:00 AM 53.6 °F 51.8 °F 94% 30.21 in - ENE 1.2 mph - N/A   Clear
4:30 AM 53.6 °F 51.8 °F 94% 30.21 in - ENE 1.2 mph - N/A   Clear
5:00 AM 53.6 °F 51.8 °F 94% 30.21 in - East 1.2 mph - N/A   Clear
5:30 AM 53.6 °F 50.0 °F 88% 30.21 in - East 4.6 mph - N/A   Clear
6:00 AM 53.6 °F 51.8 °F 94% 30.21 in - ESE 5.8 mph - N/A   Clear
6:30 AM 53.6 °F 51.8 °F 94% 30.21 in - SE 5.8 mph - N/A   Clear
7:00 AM 53.6 °F 51.8 °F 94% 30.21 in - SE 5.8 mph - N/A   Clear
7:30 AM 51.8 °F 51.8 °F 100% 30.21 in 6.2 mi ESE 3.5 mph - N/A   Partly Cloudy
8:00 AM 53.6 °F 51.8 °F 94% 30.24 in 6.2 mi Variable 1.2 mph - N/A   Scattered Clouds
8:30 AM 57.2 °F 55.4 °F 94% 30.24 in 6.2 mi Variable 2.3 mph - N/A   Mostly Cloudy
9:00 AM 59.0 °F 55.4 °F 88% 30.24 in 6.2 mi Variable 2.3 mph - N/A   Mostly Cloudy
9:30 AM 59.0 °F 55.4 °F 88% 30.27 in 6.2 mi ESE 3.5 mph - N/A   Mostly Cloudy
10:00 AM 60.8 °F 55.4 °F 82% 30.27 in 6.2 mi SE 4.6 mph - N/A   Scattered Clouds
10:30 AM 62.6 °F 53.6 °F 72% 30.27 in 6.2 mi SE 4.6 mph - N/A   Scattered Clouds
11:00 AM 62.6 °F 55.4 °F 77% 30.27 in 6.2 mi ESE 4.6 mph - N/A   Partly Cloudy
11:30 AM 64.4 °F 55.4 °F 73% 30.27 in 6.2 mi ESE 5.8 mph - N/A   Partly Cloudy
12:00 PM 64.4 °F 55.4 °F 73% 30.27 in 6.2 mi SE 3.5 mph - N/A   Partly Cloudy
12:30 PM 66.2 °F 55.4 °F 68% 30.27 in 6.2 mi Variable 2.3 mph - N/A   Partly Cloudy
1:00 PM 64.4 °F 57.2 °F 77% 30.27 in 6.2 mi Variable 2.3 mph - N/A   Partly Cloudy
1:30 PM 66.2 °F 57.2 °F 73% 30.27 in 6.2 mi East 5.8 mph - N/A   Scattered Clouds
2:30 PM 66.2 °F 57.2 °F 73% 30.27 in 6.2 mi WNW 3.5 mph - N/A   Mostly Cloudy
3:00 PM 64.4 °F 57.2 °F 77% 30.27 in 6.2 mi Variable 2.3 mph - N/A   Mostly Cloudy
3:30 PM 68.0 °F 57.2 °F 68% 30.27 in 6.2 mi Variable 2.3 mph - N/A   Partly Cloudy
4:00 PM 66.2 °F 55.4 °F 68% 30.24 in 6.2 mi ESE 4.6 mph - N/A   Partly Cloudy
4:30 PM 64.4 °F 57.2 °F 77% 30.24 in 6.2 mi NNW 4.6 mph - N/A   Mostly Cloudy
5:00 PM 66.2 °F 57.2 °F 73% 30.27 in 6.2 mi NW 3.5 mph - N/A   Scattered Clouds
5:30 PM 64.4 °F 57.2 °F 77% 30.27 in 6.2 mi WNW 3.5 mph - N/A   Partly Cloudy
6:00 PM 64.4 °F 57.2 °F 77% 30.27 in 6.2 mi NNW 3.5 mph - N/A   Partly Cloudy
6:30 PM 62.6 °F 57.2 °F 82% 30.27 in 6.2 mi Variable 2.3 mph - N/A   Scattered Clouds
7:00 PM 62.6 °F 55.4 °F 77% 30.27 in 6.2 mi ESE 3.5 mph - N/A   Scattered Clouds
7:30 PM 59.0 °F 55.4 °F 88% 30.27 in 6.2 mi East 3.5 mph - N/A   Scattered Clouds
8:00 PM 60.8 °F 57.2 °F 88% 30.27 in 6.2 mi Calm Calm - N/A   Mostly Cloudy
8:30 PM 59.0 °F 57.2 °F 94% 30.30 in 6.2 mi Calm Calm - N/A   Mostly Cloudy
9:00 PM 59.0 °F 55.4 °F 88% 30.30 in 6.2 mi Calm Calm - N/A   Mostly Cloudy
9:30 PM 59.0 °F 55.4 °F 88% 30.30 in 6.2 mi Variable 2.3 mph - N/A   Mostly Cloudy
10:00 PM 57.2 °F 55.4 °F 94% 30.30 in 6.2 mi Calm Calm - N/A   Mostly Cloudy
10:30 PM 55.4 °F 51.8 °F 88% 30.30 in 6.2 mi ESE 1.2 mph - N/A   Partly Cloudy
11:00 PM 55.4 °F 53.6 °F 94% 30.30 in 6.2 mi ESE 1.2 mph - N/A   Partly Cloudy
11:30 PM 55.4 °F 53.6 °F 94% 30.30 in 6.2 mi Calm Calm - N/A   Partly Cloudy